ATLAS 5 CENTAUR R/B, 40731

Orbit data source: Space-Track

ATLAS 5 CENTAUR R/B, 40731 is space debris in MEO originally from a launch on Wed, 15 Jul 2015 UTC launched from the Air Force Eastern Test Range (AFETR). Debris objects in space refer to the collection of defunct objects orbiting the Earth. Examples of debris include non-operational satellites, rocket bodies, and fragments generated from explosions, collisions, or faulty payload assembly.

Loading next visibility...
Identifier
40731, 2015-033B
Orbit
MEO
Country
Flag of USUS
Related business
Flag of USUnited Launch Alliance/Lockheed Martin (US)
Manufacturer
LMSS Denver
Mission
Spacecraft
Bus & Motor
CENTAUR SEC, RL10C-1
Mass
~2,020 kg wet, 2,020 kg dry
Launch date (UTC)
2015-07-15 (11 years ago)
Launch vehicle
Unknown
Launch site
Air Force Eastern Test Range (AFETR)
Object type
Payload
Rocket body
Debris
Shape & HBR
Cyl + 1 Nozzle, 5.8 m
Radar Cross Section
32.260 m², Large (>1 m²)

Expand to show TLE details & history
Last TLE update: 2 days ago

TLE from 2 days ago
0 ATLAS 5 CENTAUR R/B
1 40731U 15033B   26120.31136880 -.00000071  00000-0  00000-0 0  9997
2 40731  54.6067 285.8684 0238012  11.0011 349.4714  1.90866869 75238
Epoch: 2026-04-30T07:28Z
TLE epoch observation values (Epoch: 2026-04-30T07:28:22.264Z)
Latitude
-0.00002°
Longitude
-44.49823°
Altitude
20,433.916 km
Speed
3.901 km/s
True Right ascension
19h 03m 25s
True Declination
0° 00' 00"
Sunlit
Object was in daylight at epoch
Visualization orbit readout
Latitude
Unknown
Longitude
Unknown
Altitude
Unknown
Speed
Unknown
Apparent Right ascension
Unknown
Apparent Declination
Unknown
Sunlit
N/A
Visualization observer readout
Local Sidereal Time
21:46:22
Azimuth
Unknown
Elevation
Unknown
Doppler factor
Unknown
Orbital elements
Apogee altitude
21,727.76 km
Perigee altitude
20,420.956 km
Semi-major axis
27,452.495 km
Eccentricity
0.0238
Inclination
54.6067°
RAAN
285.8684°
Arg. of periapsis
11.0011°
True anomaly
348.95804°
Mean anomaly
349.4714°
Eccentric anomaly
349.21625°
Mean motion
0.47717 °/min
Orbital period
754.45 mins
BSTAR
0
Loading maneuver chart data...
Computing Atmospheric mass density...
Loading historical data...
Loading historical data...
Loading historical data...
Loading historical data...
Loading historical data...
Loading historical data...
Loading historical data...
Other satellites on launch #33 in the year 2015 (2015-07-15 UTC)

Documentation

Showing up to 5 results
|